Covington, KY

12:52 PM EST on December 05, 2019 (GMT -0500)
Cincinnati-Northern KY International

Weather History for KCVG - October, 2019

Change the Weather History Date:

Tuesday, October 8, 2019

  Actual Average Record
Temperature  
Mean Temperature 60 °F 58 °F  
Max Temperature 72 °F 69 °F 91 °F (1939)
Min Temperature 48 °F 48 °F 29 °F (2000)
Degree Days  
Heating Degree Days 5 8  
Month to date heating degree days 13 53  
Since 1 July heating degree days 13 111  
Cooling Degree Days 0 1  
Month to date cooling degree days 50 10  
Year to date cooling degree days 1492 1115  
Growing Degree Days 10 (Base 50)    
Moisture  
Dew Point 45 °F    
Average Humidity 72    
Maximum Humidity 97    
Minimum Humidity 29    
Precipitation  
Precipitation 0.00 in 0.11 in 1.16 in (1975)
Month to date precipitation 0.52 0.82  
Year to date precipitation 42.94 33.24  
Snow  
Snow 0.00 in 0.00 in 0.00 in ()
Month to date snowfall 0.0 0.0  
Since 1 July snowfall 0.0 0.0  
Since 1 September snowfall 0.0 0.0  
Snow Depth 0.00 in    
Sea Level Pressure  
Sea Level Pressure 30.20 in    
Wind  
Wind Speed 4 mph ()    
Max Wind Speed 17 mph    
Max Gust Speed 24 mph    
Visibility 5.3 miles    
Events Fog    
T = Trace of Precipitation, MM = Missing Value Source: Averaged Metar Reports

Daily Weather History Graph

Daily Weather History Graph

Search for Another Location

Airport or City:

Astronomy

Oct. 08, 2019 Rise Set
Actual Time 7:41 AM EDT 7:10 PM EDT
Civil Twilight 7:14 AM EDT 7:37 PM EDT
Nautical Twilight 6:43 AM EDT 8:08 PM EDT
Astronomical Twilight 6:12 AM EDT 8:39 PM EDT
Moon 5:06 PM EDT (10/8) 2:32 AM EDT (10/8)
Length of Visible Light 12h 23m
Length of Day
11h 29m
Waxing Gibbous, 77% of the Moon is Illuminated
Oct 8
Waxing Gibbous
Oct 13
Full
Oct 21
Last Quarter
Oct 27
New
Nov 4
First Quarter

Hourly Weather History & Observations

Time (EDT) Temp. Dew Point Humidity Pressure Visibility Wind Dir Wind Speed Gust Speed Precip Events Conditions
12:52 AM 52.0 °F 50.0 °F 93% 30.22 in 7.0 mi Calm Calm - N/A   Clear
1:52 AM 51.1 °F 48.0 °F 89% 30.21 in 5.0 mi Calm Calm - N/A   Clear
2:52 AM 50.0 °F 46.9 °F 89% 30.21 in 3.0 mi Calm Calm - N/A   Clear
2:57 AM 50.0 °F 46.9 °F 89% 30.22 in 3.0 mi Calm Calm - N/A   Partly Cloudy
3:07 AM 50.0 °F 46.9 °F 89% 30.21 in 0.5 mi Calm Calm - N/A Fog Fog
3:14 AM 48.9 °F 48.0 °F 97% 30.21 in 0.2 mi NNE 3.5 mph - N/A Fog Fog
3:52 AM 48.0 °F 46.9 °F 96% 30.20 in 0.1 mi Calm Calm - N/A Fog Fog
4:52 AM 48.0 °F 46.0 °F 93% 30.20 in 0.2 mi North 3.5 mph - N/A Fog Fog
5:36 AM 50.0 °F 48.0 °F 93% 30.21 in 0.8 mi NNE 5.8 mph - N/A   Mist
5:52 AM 50.0 °F 48.0 °F 93% 30.21 in 1.0 mi NNE 4.6 mph - N/A   Mist
6:03 AM 51.1 °F 48.9 °F 92% 30.22 in 1.0 mi NNE 4.6 mph - N/A   Partly Cloudy
6:26 AM 50.0 °F 48.9 °F 96% 30.22 in 1.5 mi Variable 5.8 mph - N/A   Partly Cloudy
6:52 AM 50.0 °F 48.0 °F 93% 30.22 in 1.5 mi NNE 4.6 mph - N/A Fog Patches of Fog
7:05 AM 48.9 °F 48.0 °F 97% 30.23 in 0.8 mi NE 3.5 mph - N/A Fog Patches of Fog
7:09 AM 50.0 °F 48.0 °F 93% 30.23 in 0.5 mi NNE 3.5 mph - N/A Fog Patches of Fog
7:20 AM 50.0 °F 48.9 °F 96% 30.23 in 1.0 mi NNE 4.6 mph - N/A Fog Patches of Fog
7:52 AM 50.0 °F 48.0 °F 93% 30.22 in 1.0 mi North 3.5 mph - N/A Fog Patches of Fog
8:06 AM 50.0 °F 48.0 °F 93% 30.23 in 2.5 mi North 3.5 mph - N/A Fog Patches of Fog
8:25 AM 50.0 °F 48.9 °F 96% 30.23 in 3.0 mi Calm Calm - N/A   Clear
8:52 AM 52.0 °F 50.0 °F 93% 30.23 in 4.0 mi ENE 6.9 mph - N/A   Clear
9:52 AM 57.0 °F 50.0 °F 77% 30.24 in 7.0 mi NE 6.9 mph - N/A   Clear
10:52 AM 61.0 °F 48.9 °F 64% 30.24 in 10.0 mi NE 9.2 mph - N/A   Clear
11:52 AM 64.9 °F 44.1 °F 47% 30.23 in 10.0 mi ENE 8.1 mph - N/A   Clear
12:52 PM 69.1 °F 41.0 °F 36% 30.21 in 10.0 mi ENE 16.1 mph 20.7 mph N/A   Clear
1:52 PM 70.0 °F 39.9 °F 33% 30.19 in 10.0 mi ENE 12.7 mph - N/A   Clear
2:52 PM 71.1 °F 39.0 °F 31% 30.16 in 10.0 mi East 13.8 mph - N/A   Clear
3:52 PM 72.0 °F 37.9 °F 29% 30.15 in 10.0 mi ENE 10.4 mph - N/A   Clear
4:52 PM 71.1 °F 39.0 °F 31% 30.14 in 10.0 mi East 9.2 mph - N/A   Clear
5:52 PM 70.0 °F 39.0 °F 32% 30.13 in 10.0 mi East 12.7 mph - N/A   Clear
6:52 PM 66.9 °F 39.0 °F 36% 30.14 in 10.0 mi East 11.5 mph - N/A   Clear
7:52 PM 64.0 °F 37.9 °F 38% 30.14 in 10.0 mi ENE 6.9 mph - N/A   Clear
8:52 PM 60.1 °F 39.9 °F 47% 30.15 in 10.0 mi East 5.8 mph - N/A   Clear
9:52 PM 57.9 °F 39.9 °F 51% 30.16 in 10.0 mi East 9.2 mph - N/A   Clear
10:52 PM 57.9 °F 41.0 °F 53% 30.15 in 10.0 mi ENE 6.9 mph - N/A   Clear
11:52 PM 59.0 °F 42.1 °F 53% 30.15 in 10.0 mi ENE 6.9 mph - N/A   Clear